Location: Cannifist
(18.2333°N, 63.0167°W)
Time: 01:04:08
(UTC+00:00)

Nadezhda 4 Rocket - Pass Details

Date: 27 February 2020
Orbit: 950 x 991 km, 82.9° (Epoch: 01 April)

Event Time Altitude Azimuth Distance (km) Brightness Sun altitude
Rises 23:19:13 0° 7° (N) 3,695 6.9 -15.4°
Reaches altitude 10° 23:21:54 10° 15° (NNE) 2,748 6.2 -16.1°
Maximum altitude 23:27:46 40° 84° (E) 1,414 4.3 -17.5°
Drops below altitude 10° 23:33:38 10° 152° (SSE) 2,742 6.1 -18.8°
Sets 23:36:18 0° 159° (SSE) 3,686 6.8 -19.5°
